Miscellaneous Local Product
Issued by NWS North Platte, NE

Home | Current Version | Previous Version | Text Only | Print | Product List | Glossary On
Versions: 1 2 3 4 5 6 7 8 9 10 11 12 13 14 15 16 17 18 19 20 21 22 23 24 25 26 27 28 29 30 31 32 33 34 35 36 37 38 39 40 41 42 43 44 45 46 47 48 49 50
000
AXUS43 KLBF 040410
MISLBF


WESTERN AND NORTH CENTRAL NEBRASKA HOURLY WEATHER ROUNDUP
NATIONAL WEATHER SERVICE NORTH PLATTE NE
1100 PM CDT FRI JUL 03 2015

***STATIONS NOT REPORTING VARIABLES SUCH AS SKY/WEATHER OR
PRESSURE ARE PROVIDED BY THE NEBRASKA DEPARTMENT OF
ROADS...RAWS...AND APRS NETWORKS...AND ARE NOT UNDER
NATIONAL WEATHER SERVICE QUALITY CONTROL***

...OBSERVATIONS IN AND NEAR THE EASTERN PANHANDLE OF NEBRASKA...

CITY           SKY/WX    TMP DP  RH WIND       PRES   REMARKS
PINE RIDGE     CLEAR     65  59  81 NE5       29.99R
CHADRON        CLEAR     67  60  78 CALM      29.97R
ALLIANCE       PTCLDY    64  58  80 SE9       30.03R
SIDNEY         CLOUDY    68  57  68 SE9       30.08R
WHITECLAY        N/A     66  60  78 SE7         N/A
CRESCENT LAKE    N/A     69  60  72 SE5         N/A
BIG SPRINGS      N/A     71  61  70 SE8         N/A
$$

...OBSERVATIONS IN NORTH CENTRAL NEBRASKA...

CITY           SKY/WX    TMP DP  RH WIND       PRES   REMARKS
VALENTINE      CLEAR     70  60  70 SE9       29.99R
THEDFORD       CLEAR     65  61  86 S3        30.02R
AINSWORTH      CLEAR     68  62  80 SE7       30.01R
O`NEILL        CLEAR     69  65  89 SE8       30.00R
ORD            CLEAR     68  62  81 SE7       29.99R
BROKEN BOW     CLEAR     67  61  81 SE6       30.01R
VALENTINE NWR    N/A     69  57  65 SE6         N/A
SPRINGVIEW       N/A     68  62  82 CALM        N/A
HALSEY           N/A     71  59  66 SE6         N/A
BREWSTER         N/A     70  64  83 E7          N/A
ROSE             N/A     80  78  91 SE9         N/A
NEWPORT          N/A     65  64  96 SE6         N/A
SARGENT          N/A     66  62  86 CALM        N/A
CHAMBERS         N/A     67  63  87 E3          N/A
EWING            N/A     66  63  91 CALM        N/A
$$

...OBSERVATIONS IN SOUTHWEST NEBRASKA AND FAR NORTHEAST COLORADO...

CITY           SKY/WX    TMP DP  RH WIND       PRES   REMARKS
WRAY           FAIR      75  58  56 SE16      30.05R
HOLYOKE        FAIR      73  61  64 SE10      30.06R
IMPERIAL       PTCLDY    70  60  70 SE9       30.04R
OGALLALA       PTCLDY    70  61  72 SE5       30.04R
NORTH PLATTE   CLEAR     67  62  84 SE8       30.03R
MCCOOK         CLEAR     70  60  70 SE6       30.03R
LEXINGTON      CLEAR     68  64  85 SE7       30.03R
PAXTON           N/A     70  64  81 SE9         N/A
GOTHENBURG       N/A     69  60  73 S3          N/A
CALLAWAY         N/A     65  62  91 S6          N/A
$$

...NORTH PLATTE AREA...

CITY           SKY/WX    TMP DP  RH WIND       PRES   REMARKS
AIRPORT        CLEAR     67  62  84 SE8       30.03R
DOWNTOWN         N/A     72  62  72 S3          N/A
HILLCREST        N/A     69  62  79 SE6         N/A
$$

...SOME WEATHER OBSERVATIONS FROM AROUND THE REGION...

CITY           SKY/WX    TMP DP  RH WIND       PRES   REMARKS
DENVER         MOCLDY    72  54  53 S13       30.11R
LARAMIE        PTCLDY    65  50  58 SE12      30.22R
CHEYENNE       CLOUDY    67  55  65 E7        30.16R
SCOTTSBLUFF    CLOUDY    74  57  55 SE8       30.03R
RAPID CITY     CLEAR     66  61  84 S3        29.97R
PIERRE         CLEAR     69  64  84 SE6       29.92R HAZE
WINNER         FAIR      71  62  73 SE9       29.95R
SIOUX FALLS    MOCLDY    70  63  78 SW3       29.96R
OMAHA          CLEAR     67  60  78 CALM      29.99R
GRAND ISLAND   CLEAR     66  63  90 SE6       30.02R
KANSAS CITY    CLEAR     69  61  75 NE5       29.99R
WICHITA        CLEAR     74  63  68 E7        29.98R
HAYS           CLEAR     70  57  64 SE7       30.02R
LIBERAL        CLEAR     72  63  73 S6          N/A
GOODLAND       MOCLDY    71  58  63 SE12      30.07R
$$



USA.gov is the U.S. government's official web portal to all federal, state and local government web resources and services.